This demonstration page uses our WeatherBlox Daily Observations layout. Learn more.

Left ArrowRight Arrow

Hourly Observations for September 25, 2021

Temp ( °F °C ) Dew Point ( °F °C ) Humidity (%) Winds ( mph kmh ) Pressure ( in mb ) Visibility ( mi km ) Precip ( " mm )
12:15 am 00:15 Clear 54 12 54 12 100 100 N N/A 30.11 1020 10 16 N/A
12:35 am 00:35 Clear 52 11 52 11 100 100 WNW 3 6 30.11 1020 10 16 N/A
12:55 am 00:55 Clear 54 12 54 12 100 100 N N/A 30.10 1019 10 16 N/A
1:15 am 01:15 Clear 54 12 52 11 94 94 N N/A 30.10 1019 10 16 N/A
1:35 am 01:35 Clear 54 12 54 12 100 100 N N/A 30.10 1019 10 16 N/A
1:55 am 01:55 Clear 54 12 52 11 94 94 N N/A 30.10 1019 10 16 N/A
2:15 am 02:15 Clear 54 12 54 12 100 100 N N/A 30.10 1019 10 16 N/A
2:35 am 02:35 Clear 54 12 54 12 100 100 N N/A 30.10 1019 10 16 N/A
2:55 am 02:55 Clear 54 12 52 11 94 94 W 3 6 30.10 1019 10 16 N/A
3:15 am 03:15 Clear 52 11 52 11 100 100 N N/A 30.10 1019 10 16 N/A
3:35 am 03:35 Clear 52 11 52 11 100 100 N N/A 30.10 1019 10 16 N/A
3:55 am 03:55 Clear 52 11 52 11 100 100 N N/A 30.10 1019 10 16 N/A
4:15 am 04:15 Clear 50 10 50 10 100 100 WNW 3 6 30.10 1019 10 16 N/A
4:35 am 04:35 Clear 52 11 52 11 100 100 N N/A 30.09 1019 10 16 N/A
4:55 am 04:55 Clear 52 11 52 11 100 100 N N/A 30.09 1019 10 16 N/A
5:15 am 05:15 Clear 50 10 50 10 100 100 NW 3 6 30.10 1019 10 16 N/A
5:35 am 05:35 Clear 52 11 52 11 100 100 N N/A 30.09 1019 10 16 N/A
5:55 am 05:55 Clear 50 10 50 10 100 100 N N/A 30.10 1019 10 16 N/A
6:15 am 06:15 Clear 50 10 50 10 100 100 N N/A 30.11 1020 10 16 N/A
6:35 am 06:35 Clear 50 10 50 10 100 100 N N/A 30.11 1020 10 16 N/A
6:55 am 06:55 Clear 50 10 50 10 100 100 N N/A 30.11 1020 10 16 N/A
7:15 am 07:15 Sunny 48 9 48 9 100 100 N N/A 30.11 1020 10 16 N/A
7:35 am 07:35 Sunny 50 10 50 10 100 100 N N/A 30.11 1020 10 16 N/A
7:55 am 07:55 Sunny 52 11 52 11 100 100 N N/A 30.10 1019 10 16 N/A
8:15 am 08:15 Sunny 54 12 52 11 94 94 N N/A 30.10 1019 10 16 N/A
8:35 am 08:35 Sunny 55 13 54 12 94 94 N N/A 30.10 1019 10 16 N/A
8:55 am 08:55 Sunny 57 14 54 12 88 88 N N/A 30.10 1019 10 16 N/A
9:15 am 09:15 Sunny 59 15 55 13 88 88 N N/A 30.10 1019 10 16 N/A
9:35 am 09:35 Sunny 61 16 54 12 77 77 N N/A 30.10 1019 10 16 N/A
9:55 am 09:55 Sunny 63 17 55 13 77 77 N N/A 30.10 1019 10 16 N/A
10:15 am 10:15 Sunny 64 18 55 13 73 73 N N/A 30.09 1019 10 16 N/A
10:35 am 10:35 Sunny 66 19 55 13 68 68 N N/A 30.09 1019 10 16 N/A
10:55 am 10:55 Sunny 70 21 54 12 57 57 N N/A 30.08 1019 10 16 N/A
11:15 am 11:15 Sunny 70 21 54 12 57 57 N N/A 30.08 1019 10 16 N/A
11:35 am 11:35 Sunny 70 21 55 13 60 60 N N/A 30.07 1018 10 16 N/A
12:35 pm 12:35 Sunny 73 23 54 12 50 50 SW 5 7 30.05 1018 10 16 N/A
12:55 pm 12:55 Sunny 73 23 54 12 50 50 W 6 9 30.04 1017 10 16 N/A
1:15 pm 13:15 Sunny 73 23 55 13 53 53 W 7 11 30.04 1017 10 16 N/A
1:35 pm 13:35 Sunny 73 23 54 12 50 50 WSW 3 6 30.03 1017 10 16 N/A
1:55 pm 13:55 Sunny 73 23 54 12 50 50 WNW 3 6 30.02 1016 10 16 N/A
2:15 pm 14:15 Sunny 75 24 54 12 47 47 N N/A 30.01 1016 10 16 N/A
2:35 pm 14:35 Sunny 75 24 55 13 50 50 S 5 7 30.00 1016 10 16 N/A
2:55 pm 14:55 Sunny 75 24 54 12 47 47 N N/A 29.98 1015 10 16 N/A
3:15 pm 15:15 Sunny 77 25 54 12 44 44 SSW 5 7 29.96 1015 10 16 N/A
3:35 pm 15:35 Sunny 73 23 54 12 50 50 S 8 13 29.97 1015 10 16 N/A
3:55 pm 15:55 Sunny 75 24 54 12 47 47 N N/A 29.96 1014 10 16 N/A
4:15 pm 16:15 Sunny 77 25 55 13 47 47 N N/A 29.95 1014 10 16 N/A
4:35 pm 16:35 Sunny 73 23 54 12 50 50 SW 3 6 29.96 1014 10 16 N/A
4:55 pm 16:55 Sunny 73 23 55 13 53 53 N N/A 29.95 1014 10 16 N/A
5:15 pm 17:15 Sunny 73 23 55 13 53 53 N N/A 29.95 1014 10 16 N/A
5:35 pm 17:35 Sunny 73 23 55 13 53 53 N N/A 29.95 1014 10 16 N/A
5:55 pm 17:55 Sunny 73 23 59 15 61 61 N N/A 29.95 1014 10 16 N/A
6:15 pm 18:15 Sunny 72 22 59 15 65 65 S 6 9 29.95 1014 10 16 N/A
6:35 pm 18:35 Sunny 72 22 59 15 65 65 S 6 9 29.94 1014 10 16 N/A
6:55 pm 18:55 Sunny 70 21 59 15 69 69 SW 5 7 29.94 1014 10 16 N/A
7:15 pm 19:15 Clear 68 20 59 15 73 73 SW 5 7 29.95 1014 10 16 N/A
7:35 pm 19:35 Clear 68 20 59 15 73 73 SW 3 6 29.94 1014 10 16 N/A
7:55 pm 19:55 Clear 66 19 59 15 78 78 WSW 3 6 29.95 1014 10 16 N/A
8:15 pm 20:15 Clear 64 18 59 15 83 83 W 5 7 29.95 1014 10 16 N/A
8:35 pm 20:35 Clear 63 17 59 15 88 88 W 3 6 29.96 1014 10 16 N/A
8:55 pm 20:55 Clear 63 17 59 15 88 88 N N/A 29.97 1015 10 16 N/A
9:15 pm 21:15 Partly Cloudy 63 17 59 15 88 88 SW 5 7 29.97 1015 10 16 N/A
9:35 pm 21:35 Partly Cloudy 61 16 59 15 94 94 SW 3 6 29.97 1015 10 16 N/A
9:55 pm 21:55 Partly Cloudy 61 16 59 15 94 94 W 3 6 29.98 1015 10 16 N/A
10:15 pm 22:15 Mostly Cloudy 61 16 59 15 94 94 N N/A 29.97 1015 10 16 N/A
10:35 pm 22:35 Partly Cloudy 63 17 59 15 88 88 W 9 15 29.99 1015 10 16 N/A
10:55 pm 22:55 Partly Cloudy 63 17 57 14 83 83 WNW 8 13 30.00 1016 10 16 N/A
11:15 pm 23:15 Mostly Cloudy 63 17 57 14 83 83 WNW 8 13 30.00 1016 10 16 N/A
11:35 pm 23:35 Cloudy 64 18 57 14 78 78 NW 10 17 29.99 1016 10 16 N/A
11:55 pm 23:55 Mostly Cloudy 64 18 55 13 73 73 NW 12 19 29.99 1016 10 16 N/A

Powered by AerisWeather